WFO RAH Logo

WFO RAH Text Data


RWRRAH
NORTH CAROLINA WEATHER ROUNDUP
NATIONAL WEATHER SERVICE RALEIGH NC
300 PM EST FRI DEC 15 2006

NOTE: "FAIR" INDICATES FEW OR NO CLOUDS BELOW 12,000 FEET WITH NO
SIGNIFICANT WEATHER AND/OR OBSTRUCTIONS TO VISIBILITY.

NCZ001-053-055-056-065-067-152100-
WESTERN NORTH CAROLINA
  
CITY           SKY/WX    TMP DP  RH WIND       PRES   REMARKS
ASHEVILLE      SUNNY     65  32  29 N10       29.89S                  
JEFFERSON      SUNNY     59  28  31 W14G24    29.87S                  
MORGANTON      SUNNY     72  27  18 W7        29.89S                  
HICKORY        SUNNY     69  31  24 W9        29.84F                  
RUTHERFORDTON  SUNNY     73  36  25 SW5       29.85S                  
MOUNT AIRY     MOSUNNY   70  28  21 W7G17     29.83R                  
$$
 
NCZ021-022-025-041-071-084-088-152100-
CENTRAL NORTH CAROLINA
  
CITY           SKY/WX    TMP DP  RH WIND       PRES   REMARKS
CHARLOTTE      MOSUNNY   66  39  37 VRB5      29.87R                  
GREENSBORO     SUNNY     65  36  34 SW9       29.85S                  
WINSTON-SALEM  SUNNY     64  35  34 SW8       29.85F                  
RALEIGH-DURHAM MOSUNNY   65  42  43 W6        29.86R                  
FORT BRAGG     SUNNY     70  41  35 W6        29.85S                  
FAYETTEVILLE   SUNNY     68  45  43 SW6       29.84F                  
$$
 
NCZ011-015-027-028-043-044-047-080-103-152100-
NORTHEASTERN NORTH CAROLINA
  
CITY           SKY/WX    TMP DP  RH WIND       PRES   REMARKS
ROANOKE RAPIDS SUNNY     67  41  38 SW9       29.83S                  
ROCKY MT-WILSO SUNNY     66  42  41 W8        29.85R                  
GREENVILLE     SUNNY     70  43  37 W5        29.85S                  
WASHINGTON     SUNNY     66  45  45 SW9       29.83F                  
ELIZABETH CITY SUNNY     65  46  50 W9        29.80F                  
MANTEO         SUNNY     63  48  59 W6        29.82S                  
CAPE HATTERAS  SUNNY     62  55  77 VRB7      29.84S                  
$$
 
NCZ078-087-090-091-093-098-101-152100-
SOUTHEASTERN NORTH CAROLINA
  
CITY           SKY/WX    TMP DP  RH WIND       PRES   REMARKS
LUMBERTON      SUNNY     69  47  45 SW8       29.85F                  
GOLDSBORO      MOSUNNY   68  41  37 SW5       29.86R                  
KINSTON        SUNNY     70  48  46 SW8       29.84F                  
KENANSVILLE    SUNNY     68  43  40 SW8       29.84F                  
NEW BERN       SUNNY     67  48  50 SW9       29.85F                  
CHERRY POINT   MOSUNNY   67  48  50 W10       29.84F                  
BEAUFORT       SUNNY     60  55  83 SW10      29.85S                  
JACKSONVILLE   MOSUNNY   68  47  46 W12       29.85F                  
WILMINGTON     SUNNY     69  47  45 SW12      29.85F                  
$$